KC7WRB Weather Reports


time (UTC)temp
C
wind
direction
speed
KPH
gust
KPH
rain 1hr
cm
rain 24hr
cm
rain mn
cm
humidity
%
barometer
mb
20260503070244 12 266 0.0 0.0 0.00 0.00 0.00 56 1015.5
20260503060215 12 257 1.6 3.2 0.00 0.00 0.00 63 1015.9
20260503054701 12 163 0.0 1.6 0.00 0.00 0.00 61 1015.7
20260503054159 11 161 0.0 0.0 0.00 0.00 0.00 65 1016.0
20260503053657 11 94 3.2 3.2 0.00 0.00 0.00 72 1016.0
20260503053155 11 79 1.6 3.2 0.00 0.00 0.00 72 1015.9
20260503052651 12 67 0.0 1.6 0.00 0.00 0.00 68 1015.9
20260503052147 12 137 3.2 3.2 0.00 0.00 0.00 62 1015.7
20260503051643 12 166 3.2 3.2 0.00 0.00 0.00 64 1015.9
20260503051141 12 156 3.2 3.2 0.00 0.00 0.00 64 1015.5
20260503050637 12 190 4.8 4.8 0.00 0.00 0.00 63 1015.5
20260503050134 12 183 0.0 0.0 0.00 0.00 0.00 63 1015.7
20260503045632 13 195 0.0 0.0 0.00 0.00 0.00 62 1015.5
20260503045129 13 173 0.0 0.0 0.00 0.00 0.00 61 1015.4
20260503044625 13 177 0.0 0.0 0.00 0.00 0.00 61 1015.3
20260503044123 12 194 1.6 1.6 0.00 0.00 0.00 62 1015.2
20260503043619 12 230 3.2 3.2 0.00 0.00 0.00 65 1014.9
20260503043116 13 217 3.2 3.2 0.00 0.00 0.00 62 1015.2
20260503042613 13 219 3.2 3.2 0.00 0.00 0.00 60 1015.0
20260503042109 13 203 1.6 3.2 0.00 0.00 0.00 61 1015.2
20260503041605 13 177 0.0 0.0 0.00 0.00 0.00 56 1015.0
20260503041104 13 147 1.6 3.2 0.00 0.00 0.00 54 1015.0
20260503040600 14 158 3.2 3.2 0.00 0.00 0.00 48 1015.2
20260503040057 15 128 0.0 0.0 0.00 0.00 0.00 46 1015.0
20260503035554 15 118 0.0 1.6 0.00 0.00 0.00 45 1014.8
20260503035052 15 84 0.0 0.0 0.00 0.00 0.00 46 1014.7
20260503034549 15 197 0.0 0.0 0.00 0.00 0.00 48 1014.7
20260503034046 15 108 0.0 0.0 0.00 0.00 0.00 45 1014.6
20260503033543 15 98 3.2 3.2 0.00 0.00 0.00 44 1014.6
20260503033041 15 246 4.8 6.4 0.00 0.00 0.00 42 1014.5
20260503032539 15 258 6.4 6.4 0.00 0.00 0.00 43 1014.2
20260503032037 15 261 6.4 9.7 0.00 0.00 0.00 42 1014.4
20260503031535 16 261 9.7 11.3 0.00 0.00 0.00 41 1014.2
20260503031032 16 271 6.4 6.4 0.00 0.00 0.00 40 1014.1
20260503030527 16 259 4.8 4.8 0.00 0.00 0.00 38 1014.0
20260503030025 16 260 3.2 3.2 0.00 0.00 0.00 37 1013.9
20260503025521 16 267 3.2 3.2 0.00 0.00 0.00 36 1013.9
20260503025019 17 282 4.8 4.8 0.00 0.00 0.00 35 1014.0
20260503024515 17 302 4.8 4.8 0.00 0.00 0.00 35 1014.0
20260503024013 17 238 1.6 3.2 0.00 0.00 0.00 36 1013.9
20260503023509 17 164 1.6 1.6 0.00 0.00 0.00 36 1014.0
20260503023007 17 80 1.6 1.6 0.00 0.00 0.00 36 1014.0
20260503022502 17 98 0.0 1.6 0.00 0.00 0.00 37 1014.1
20260503021957 17 104 0.0 1.6 0.00 0.00 0.00 40 1014.1
20260503021454 17 126 0.0 0.0 0.00 0.00 0.00 37 1014.2
20260503020951 18 121 3.2 3.2 0.00 0.00 0.00 35 1014.4
20260503020449 18 45 1.6 3.2 0.00 0.00 0.00 34 1014.5
20260503015945 18 64 1.6 1.6 0.00 0.00 0.00 32 1014.4
20260503015442 18 48 3.2 3.2 0.00 0.00 0.00 32 1014.2
20260503014938 18 84 3.2 3.2 0.00 0.00 0.00 33 1014.5
20260503014435 18 95 14.5 17.7 0.00 0.00 0.00 35 1014.6
20260503013933 18 114 11.3 12.9 0.00 0.00 0.00 34 1014.2
20260503013430 18 109 9.7 11.3 0.00 0.00 0.00 33 1014.5
20260503012927 18 234 0.0 0.0 0.00 0.00 0.00 31 1014.4
20260503012425 18 240 3.2 3.2 0.00 0.00 0.00 31 1014.2
20260503011921 18 260 6.4 6.4 0.00 0.00 0.00 31 1013.9
20260503011418 18 316 3.2 4.8 0.00 0.00 0.00 32 1014.1
20260503010915 18 71 8.0 9.7 0.00 0.00 0.00 32 1014.1
20260503010412 18 58 9.7 16.1 0.00 0.00 0.00 33 1014.2
20260503005909 18 72 6.4 12.9 0.00 0.00 0.00 33 1014.5
20260503005407 19 77 22.5 29.0 0.00 0.00 0.00 32 1014.5
20260503004902 19 89 1.6 1.6 0.00 0.00 0.00 31 1014.4
20260503004400 19 92 1.6 1.6 0.00 0.00 0.00 30 1014.5
20260503003857 19 64 3.2 4.8 0.00 0.00 0.00 31 1014.5
20260503003354 20 58 11.3 12.9 0.00 0.00 0.00 32 1014.5
20260503002851 20 296 17.7 22.5 0.00 0.00 0.00 31 1014.1
20260503002348 20 344 16.1 16.1 0.00 0.00 0.00 30 1014.4
20260503001844 19 347 11.3 12.9 0.00 0.00 0.00 30 1014.1
20260503001341 19 338 14.5 20.9 0.00 0.00 0.00 30 1013.9
20260503000838 18 79 9.7 16.1 0.00 0.00 0.00 32 1014.2
20260503000336 18 80 9.7 16.1 0.00 0.00 0.00 31 1014.4
20260502235833 18 59 6.4 9.7 0.00 0.00 0.00 32 1014.5
20260502235330 20 83 9.7 11.3 0.00 0.00 0.00 30 1014.5
20260502234826 20 40 9.7 11.3 0.00 0.00 0.00 27 1014.4
20260502234323 20 33 11.3 14.5 0.00 0.00 0.00 28 1014.2
20260502233820 19 51 14.5 20.9 0.00 0.00 0.00 28 1014.4
20260502233316 19 77 8.0 17.7 0.00 0.00 0.00 31 1014.2
20260502232813 19 84 12.9 16.1 0.00 0.00 0.00 31 1014.1
20260502232310 19 49 14.5 20.9 0.00 0.00 0.00 31 1013.7
20260502231806 19 84 20.9 29.0 0.00 0.00 0.00 32 1013.5
20260502231304 19 86 17.7 27.4 0.00 0.00 0.00 31 1013.7
20260502230802 20 94 22.5 24.1 0.00 0.00 0.00 31 1013.7
20260502230300 20 75 19.3 25.7 0.00 0.00 0.00 27 1013.5
20260502225756 20 85 17.7 22.5 0.00 0.00 0.00 28 1013.9
20260502225253 20 110 30.6 35.4 0.00 0.00 0.00 26 1013.9
20260502224749 20 104 27.4 29.0 0.00 0.00 0.00 25 1014.0
20260502224246 20 81 20.9 25.7 0.00 0.00 0.00 25 1013.9
20260502223744 20 91 3.2 6.4 0.00 0.00 0.00 26 1013.9
20260502223242 21 86 8.0 11.3 0.00 0.00 0.00 24 1014.2
20260502222739 22 78 9.7 12.9 0.00 0.00 0.00 24 1014.4
20260502222236 23 127 6.4 6.4 0.00 0.00 0.00 21 1014.0
20260502221731 23 198 4.8 6.4 0.00 0.00 0.00 21 1014.1
20260502221229 23 240 6.4 9.7 0.00 0.00 0.00 21 1013.9
20260502220725 23 203 6.4 6.4 0.00 0.00 0.00 20 1014.2
20260502220221 23 206 8.0 9.7 0.00 0.00 0.00 20 1014.2
20260502215718 24 245 12.9 16.1 0.00 0.00 0.00 20 1014.2
20260502215215 24 176 3.2 4.8 0.00 0.00 0.00 19 1014.2
20260502214713 24 208 3.2 4.8 0.00 0.00 0.00 18 1014.2
20260502214210 24 161 4.8 6.4 0.00 0.00 0.00 19 1014.1
20260502213707 25 255 11.3 12.9 0.00 0.00 0.00 18 1014.5
20260502213204 25 193 4.8 6.4 0.00 0.00 0.00 18 1014.4
20260502212702 24 193 6.4 6.4 0.00 0.00 0.00 18 1014.4
20260502212200 23 253 4.8 6.4 0.00 0.00 0.00 19 1014.5
20260502211656 24 257 12.9 14.5 0.00 0.00 0.00 18 1014.4
20260502211153 25 180 12.9 16.1 0.00 0.00 0.00 17 1014.7
20260502210650 24 139 6.4 9.7 0.00 0.00 0.00 18 1014.5
20260502210147 24 148 6.4 12.9 0.00 0.00 0.00 17 1014.8
20260502205644 23 261 6.4 11.3 0.00 0.00 0.00 19 1014.7
20260502205141 23 258 11.3 14.5 0.00 0.00 0.00 19 1014.7
20260502204638 23 217 6.4 6.4 0.00 0.00 0.00 20 1014.6
20260502204135 23 190 11.3 16.1 0.00 0.00 0.00 19 1015.0
20260502203632 23 230 12.9 16.1 0.00 0.00 0.00 20 1015.0
20260502203130 23 207 8.0 11.3 0.00 0.00 0.00 19 1014.8
20260502202625 23 239 4.8 6.4 0.00 0.00 0.00 19 1014.9
20260502202123 23 270 8.0 11.3 0.00 0.00 0.00 19 1014.8
20260502201620 23 255 6.4 11.3 0.00 0.00 0.00 20 1014.9
20260502201116 24 197 11.3 14.5 0.00 0.00 0.00 19 1014.9
20260502200612 23 209 8.0 11.3 0.00 0.00 0.00 19 1015.2
20260502200110 23 205 9.7 11.3 0.00 0.00 0.00 19 1015.2
20260502195608 23 120 8.0 12.9 0.00 0.00 0.00 20 1015.4
20260502195103 23 236 9.7 11.3 0.00 0.00 0.00 19 1015.2
20260502194600 23 226 6.4 9.7 0.00 0.00 0.00 19 1015.3
20260502194056 23 208 6.4 9.7 0.00 0.00 0.00 19 1015.5
20260502193554 23 247 4.8 9.7 0.00 0.00 0.00 20 1015.4
20260502193050 23 202 9.7 12.9 0.00 0.00 0.00 21 1015.6
20260502192546 23 262 6.4 6.4 0.00 0.00 0.00 20 1015.6
20260502192044 23 124 4.8 4.8 0.00 0.00 0.00 19 1015.4
20260502191540 23 224 4.8 6.4 0.00 0.00 0.00 20 1016.0
20260502191038 23 250 8.0 9.7 0.00 0.00 0.00 20 1015.7
20260502190536 23 208 8.0 14.5 0.00 0.00 0.00 21 1015.7
20260502190032 23 245 9.7 12.9 0.00 0.00 0.00 20 1015.9
20260502185527 22 195 9.7 16.1 0.00 0.00 0.00 21 1015.7
20260502185024 23 240 9.7 11.3 0.00 0.00 0.00 20 1015.9
20260502184520 23 226 9.7 12.9 0.00 0.00 0.00 20 1015.9
20260502184016 22 267 19.3 27.4 0.00 0.00 0.00 21 1015.7
20260502183513 22 195 6.4 6.4 0.00 0.00 0.00 21 1015.9
20260502183009 23 261 8.0 11.3 0.00 0.00 0.00 20 1016.1
20260502182503 23 202 6.4 11.3 0.00 0.00 0.00 20 1016.2
20260502182000 22 250 3.2 3.2 0.00 0.00 0.00 21 1016.3
20260502181458 22 121 3.2 3.2 0.00 0.00 0.00 21 1016.4
20260502180957 22 151 9.7 12.9 0.00 0.00 0.00 22 1016.5
20260502180453 22 260 14.5 17.7 0.00 0.00 0.00 22 1016.3
20260502170412 18 243 3.2 4.8 0.00 0.00 0.00 23 1017.1
20260502163855 17 350 6.4 6.4 0.00 0.00 0.00 25 1017.1
20260502163352 17 317 4.8 6.4 0.00 0.00 0.00 25 1016.9
20260502162850 16 300 6.4 6.4 0.00 0.00 0.00 25 1017.1
20260502162346 16 303 4.8 6.4 0.00 0.00 0.00 26 1017.1
20260502161843 16 261 3.2 3.2 0.00 0.00 0.00 26 1017.2
20260502161339 15 246 6.4 9.7 0.00 0.00 0.00 26 1017.0
20260502160837 15 290 6.4 6.4 0.00 0.00 0.00 28 1017.1
20260502160336 14 301 9.7 11.3 0.00 0.00 0.00 28 1017.1
20260502152310 11 211 3.2 3.2 0.00 0.00 0.00 37 1017.0
20260502151808 10 135 0.0 0.0 0.00 0.00 0.00 39 1017.0
20260502151305 10 134 0.0 0.0 0.00 0.00 0.00 42 1017.1
20260502150803 9 134 1.6 1.6 0.00 0.00 0.00 48 1017.2
20260502150258 9 146 1.6 3.2 0.00 0.00 0.00 44 1017.1
20260502130647 4 127 0.0 1.6 0.00 0.00 0.00 50 1016.5
20260502130145 5 109 0.0 0.0 0.00 0.00 0.00 54 1016.5
20260502123630 5 217 0.0 0.0 0.00 0.00 0.00 47 1016.2
20260502123127 5 219 1.6 1.6 0.00 0.00 0.00 48 1016.4
20260502122624 6 185 1.6 1.6 0.00 0.00 0.00 47 1016.3
20260502122120 7 189 0.0 0.0 0.00 0.00 0.00 43 1016.2
20260502121619 7 160 1.6 1.6 0.00 0.00 0.00 42 1016.3
20260502121115 6 239 0.0 0.0 0.00 0.00 0.00 43 1016.2
20260502120612 6 240 0.0 1.6 0.00 0.00 0.00 45 1016.3
20260502120109 6 220 3.2 3.2 0.00 0.00 0.00 45 1016.4
20260502115607 6 220 3.2 3.2 0.00 0.00 0.00 45 1016.3
20260502115102 6 169 0.0 1.6 0.00 0.00 0.00 45 1016.3
20260502114559 6 169 1.6 1.6 0.00 0.00 0.00 47 1016.2
20260502114055 6 159 1.6 3.2 0.00 0.00 0.00 42 1016.3
20260502113553 6 237 0.0 0.0 0.00 0.00 0.00 41 1016.3
20260502113052 6 239 1.6 1.6 0.00 0.00 0.00 41 1016.2
20260502112549 6 239 1.6 3.2 0.00 0.00 0.00 39 1016.1
20260502112047 6 278 3.2 3.2 0.00 0.00 0.00 39 1016.3
20260502111544 6 268 1.6 1.6 0.00 0.00 0.00 41 1016.4
20260502111041 6 267 0.0 0.0 0.00 0.00 0.00 43 1016.3
20260502110538 6 287 1.6 3.2 0.00 0.00 0.00 42 1016.2
20260502110036 6 259 3.2 3.2 0.00 0.00 0.00 43 1016.2
20260502105533 6 277 4.8 4.8 0.00 0.00 0.00 43 1016.2
20260502105031 6 206 1.6 3.2 0.00 0.00 0.00 40 1016.4
20260502104527 7 188 0.0 1.6 0.00 0.00 0.00 36 1016.2
20260502104025 7 187 0.0 0.0 0.00 0.00 0.00 36 1016.1
20260502103523 7 187 0.0 0.0 0.00 0.00 0.00 33 1016.3
20260502103021 8 187 0.0 1.6 0.00 0.00 0.00 32 1016.4
20260502102516 8 209 1.6 1.6 0.00 0.00 0.00 37 1016.2
20260502102014 7 198 1.6 3.2 0.00 0.00 0.00 36 1016.1
20260502101512 7 125 0.0 0.0 0.00 0.00 0.00 31 1016.1
20260502101010 8 125 0.0 0.0 0.00 0.00 0.00 30 1016.2
20260502100508 8 125 0.0 0.0 0.00 0.00 0.00 30 1016.2
20260502091442 8 77 3.2 3.2 0.00 0.00 0.00 35 1016.5
20260502090940 9 169 1.6 1.6 0.00 0.00 0.00 31 1016.4
20260502090436 8 175 1.6 1.6 0.00 0.00 0.00 31 1016.4
20260502071331 10 151 0.0 1.6 0.00 0.00 0.00 34 1017.2
20260502070829 10 152 1.6 3.2 0.00 0.00 0.00 31 1017.0